Location: Cosy Dell
(34.2789°N, 117.4537°W)
Time: 12:02:23
(UTC+00:00)

Cosmos 2218 Rocket - Pass Details

Date: 14 July 2020
Orbit: 955 x 1007 km, 82.9° (Epoch: 08 August)

Event Time Altitude Azimuth Distance (km) Brightness Sun altitude
Exits shadow 05:54:36 44° 82° (E) 1,337 4.5 -27.1°
Drops below altitude 10° 06:00:11 10° 20° (NNE) 2,740 6.8 -27.7°
Sets 06:02:47 0° 15° (NNE) 3,683 7.6 -28.0°
